SCP
0 0 0 0 0 0 0 0 0 0 0 0 0 0 0 0 0 0 0 0 0 0 0 0 0 0 0 0 0 0 0 0 0 0 0 0 0 0 0 0 0 0 0 0 0
0 0 0 0 0 0 0 0 0 0 0 0 0 0 0 0 0 0 0 0 0 0 0 0 0 0 0 0 0 0 0 0 0 0 0 0 0 0 0 0 0 0 0 0 0
0 0 0 0 0 0 0 0 0 0 0 0 0 0 0 0 0 0 0 0 0 0 0 0 0 0 0 0 0 0 0 0 0 0 0 0 0 0 0 0 0 0 0 0 0
0 0 0 0 0 0 0 0 0 0 0 0 0 0 0 0 0 0 0 0 0 0 0 0 0 0 0 0 0 0 0 0 0 0 0 0 0 0 0 0 0 0 0 0 0
0 0 0 0 0 0 0 0 0 0 0 0 0 0 0 0 0 0 0 0 0 0 0 0 0 0 0 0 0 0 0 0 0 0 0 0 0 0 0 0 0 0 0 0 0
0 0 0 0 0 0 0 0 0 0 0 0 0 0 0 0 0 0 0 0 0 0 0 0 0 0 0 0 0 0 0 0 0 0 0 0 0 0 0 0 0 0 0 0 0
0 0 0 0 0 0 0 0 0 0 0 0 0 0 0 0 0 0 0 0 0 0 0 0 0 0 0 0 0 0 0 0 0 0 0 0 0 0 0 0 0 0 0 0 0
0 0 0 0 0 0 0 0 0 0 0 0 0 0 0 0 0 0 0 0 0 0 0 0 0 0 0 0 0 0 0 0 0 0 0 0 0 0 0 0 0 0 0 0 0
0 0 0 0 0 0 0 0 0 0 0 0 0 0 0 0 0 0 0 0 0 0 0 0 0 0 0 0 0 0 0 0 0 0 0 0 0 0 0 0 0 0 0 0 0
0 0 0 0 0 0 0 0 0 0 0 0 0 0 0 0 0 0 0 0 0 0 0 0 0 0 0 0 0 0 0 0 0 0 0 0 0 0 0 0 0 0 0 0 0
0 0 0 0 0 0 0 0 0 0 0 0 0 0 0 0 0 0 0 0 0 0 0 0 0 0 0 0 0 0 0 0 0 0 0 0 0 0 0 0 0 0 0 0 0
0 0 0 0 0 0 0 0 0 0 0 0 0 0 0 0 0 0 0 0 0 0 0 0 0 0 0 0 0 0 0 0 0 0 0 0 0 0 0 0 0 0 0 0 0
0 0 0 0 0 0 0 0 0 0 0 0 0 0 0 0 0 0 0 0 0 0 0 0 0 0 0 0 0 0 0 0 0 0 0 0 0 0 0 0 0 0 0 0 0
0 0 0 0 0 0 0 0 0 0 0 0 0 0 0 0 0 0 0 0 0 0 0 0 0 0 0 0 0 0 0 0 0 0 0 0 0 0 0 0 0 0 0 0 0
0 0 0 0 0 0 0 0 0 0 0 0 0 0 0 0 0 0 0 0 0 0 0 0 0 0 0 0 0 0 0 0 0 0 0 0 0 0 0 0 0 0 0 0 0
0 0 0 0 0 0 0 0 0 0 0 0 0 0 0 0 0 0 0 0 0 0 0 0 0 0 0 0 0 0 0 0 0 0 0 0 0 0 0 0 0 0 0 0 0
0 0 0 0 0 0 0 0 0 0 0 0 0 0 0 0 0 0 0 0 0 0 0 0 0 0 0 0 0 0 0 0 0 0 0 0 0 0 0 0 0 0 0 0 0
0 0 0 0 0 0 0 0 0 0 0 0 0 0 0 0 0 0 0 0 0 0 0 0 0 0 0 0 0 0 0 0 0 0 0 0 0 0 0 0 0 0 0 0 0
0 0 0 0 0 0 0 0 0 0 0 0 0 0 0 0 0 0 0 0 0 0 0 0 0 0 0 0 0 0 0 0 0 0 0 0 0 0 0 0 0 0 0 0 0
0 0 0 0 0 0 0 0 0 0 0 0 0 0 0 0 0 0 0 0 0 0 0 0 0 0 0 0 0 0 0 0 0 0 0 0 0 0 0 0 0 0 0 0 0
0 0 0 0 0 0 0 0 0 0 0 0 0 0 0 0 0 0 0 0 0 0 0 0 0 0 0 0 0 0 0 0 0 0 0 0 0 0 0 0 0 0 0 0 0
0 0 0 0 0 0 0 0 0 0 0 0 0 0 0 0 0 0 0 0 0 0 0 0 0 0 0 0 0 0 0 0 0 0 0 0 0 0 0 0 0 0 0 0 0
0 0 0 0 0 0 0 0 0 0 0 0 0 0 0 0 0 0 0 0 0 0 0 0 0 0 0 0 0 0 0 0 0 0 0 0 0 0 0 0 0 0 0 0 0
0 0 0 0 0 0 0 0 0 0 0 0 0 0 0 0 0 0 0 0 0 0 0 0 0 0 0 0 0 0 0 0 0 0 0 0 0 0 0 0 0 0 0 0 0
0 0 0 0 0 0 0 0 0 0 0 0 0 0 0 0 0 0 0 0 0 0 0 0 0 0 0 0 0 0 0 0 0 0 0 0 0 0 0 0 0 0 0 0 0
0 0 0 0 0 0 0 0 0 0 0 0 0 0 0 0 0 0 0 0 0 0 0 0 0 0 0 0 0 0 0 0 0 0 0 0 0 0 0 0 0 0 0 0 0
0 0 0 0 0 0 0 0 0 0 0 0 0 0 0 0 0 0 0 0 0 0 0 0 0 0 0 0 0 0 0 0 0 0 0 0 0 0 0 0 0 0 0 0 0
Wind_Speed_500mb
10 10 11 12 12 13 14 14 15 16 17 18 19 21 22 24 26 28 27 15 12 13 11 10 8 3 2 5 6 4 9 1 6 10 5 8 11 2 10 5 11 6 15 18 16
16 15 15 15 14 16 17 18 19 19 20 21 23 24 25 28 30 31 14 9 7 7 8 9 7 4 4 4 3 8 7 12 8 7 4 9 5 17 6 15 5 22 11 15 21
21 20 19 19 19 19 19 20 21 22 22 24 24 25 26 27 29 6 1 2 4 6 11 10 8 2 3 1 3 6 9 7 6 15 8 5 11 4 5 8 11 22 27 10 5
24 23 23 23 22 22 22 23 23 24 24 26 26 26 25 22 7 4 4 4 5 7 11 10 5 1 3 2 4 1 11 10 6 4 5 6 6 11 13 2 20 14 10 10 10
29 28 26 26 27 26 26 26 27 26 26 26 26 26 26 16 18 23 20 17 14 14 17 14 10 5 4 5 3 5 6 9 17 20 21 20 20 13 36 20 7 11 8 15 17
33 32 32 30 30 31 29 29 30 29 28 26 26 25 23 16 19 20 21 21 20 19 21 19 7 10 5 6 8 2 9 22 22 27 20 12 2 7 15 15 13 5 11 14 16
36 36 35 35 33 32 32 31 31 31 31 29 27 26 28 41 28 21 21 22 20 19 20 20 18 12 9 2 4 5 10 12 12 7 9 12 2 9 7 5 15 13 12 12 15
36 37 37 37 36 35 34 33 32 32 32 32 28 25 22 31 33 32 36 29 20 19 18 16 16 14 7 4 8 7 7 7 3 4 0 9 11 17 20 4 18 15 16 16 20
36 34 35 36 36 37 37 34 32 33 32 31 25 20 22 28 26 29 29 26 24 20 18 14 15 8 8 10 8 9 7 9 15 3 5 5 11 13 32 11 24 21 21 23 25
36 37 34 32 34 36 35 33 30 31 31 29 29 15 33 18 14 16 24 21 14 19 14 12 7 5 4 8 11 13 9 8 10 1 5 1 12 17 36 26 31 29 29 32 33
37 39 37 35 32 33 31 27 18 17 26 25 10 14 8 20 19 17 23 26 17 13 9 6 7 18 28 22 5 9 9 10 7 5 1 10 5 14 23 30 30 32 35 40 45
41 40 41 38 36 33 29 16 16 13 21 33 46 51 41 16 13 26 30 25 17 12 12 5 17 22 8 8 7 3 6 10 8 8 10 9 4 7 16 11 18 30 36 42 46
47 48 43 43 42 39 38 31 24 18 13 20 45 51 68 52 30 37 43 26 11 15 17 17 10 15 14 9 10 10 12 11 12 5 3 3 6 8 8 22 25 26 31 37 41
48 50 50 48 47 47 51 24 29 10 8 12 15 16 30 30 16 43 51 23 8 22 15 15 12 11 10 12 20 13 17 12 11 8 9 4 9 6 10 9 11 21 28 34 38
58 53 55 64 57 47 39 21 18 13 11 2 8 10 24 19 21 11 44 20 15 16 14 15 14 12 15 19 15 11 10 13 7 7 3 4 2 4 12 12 16 29 35 37 39
63 55 54 58 70 59 48 34 43 9 24 7 7 9 11 6 6 11 12 7 7 8 5 8 4 14 15 4 16 15 12 11 9 5 5 17 14 8 13 14 21 28 38 39 38
60 61 62 68 66 67 46 47 7 11 6 11 9 11 6 10 6 9 12 13 13 10 13 3 10 6 10 10 4 7 13 1 2 2 11 8 9 13 12 12 35 43 52 44 39
57 57 67 75 74 62 59 12 18 14 15 8 8 7 15 13 8 12 13 11 12 5 6 12 11 21 14 15 15 13 14 10 14 9 4 0 12 9 3 9 45 58 60 50 44
57 69 81 82 83 75 54 20 20 13 13 20 7 8 10 10 14 10 15 11 19 21 17 12 12 2 6 8 16 13 12 6 11 4 5 9 6 1 8 11 37 55 64 58 48
49 57 77 83 79 74 23 39 16 16 10 11 32 22 23 17 18 18 18 10 11 25 10 9 7 5 6 9 3 8 14 5 3 4 9 7 7 10 17 23 25 34 51 58 47
34 26 29 54 65 39 21 18 15 25 22 16 26 17 14 16 20 13 15 2 8 11 15 10 6 1 7 11 15 7 7 3 7 8 10 3 10 3 26 37 42 49 64 66 56
26 7 17 44 23 6 2 7 5 12 18 8 3 9 16 18 18 14 22 4 15 10 19 13 7 9 11 4 1 0 11 12 11 10 4 4 10 6 12 40 53 56 66 67 56
17 19 33 46 12 8 8 9 6 7 15 13 12 7 2 14 10 9 12 4 13 7 12 13 5 4 9 2 1 9 8 7 7 7 13 9 10 9 14 29 43 50 63 64 53
9 9 16 42 17 17 13 11 11 24 7 9 4 5 6 5 4 11 10 6 8 9 17 13 5 9 12 4 2 7 8 8 9 12 11 18 4 5 12 20 33 51 67 60 54
3 7 7 8 14 26 22 17 26 13 19 41 13 16 12 11 15 13 7 7 6 18 11 10 10 9 8 2 4 2 7 10 15 10 19 20 17 14 28 31 58 72 65 61 56
15 9 7 10 7 26 22 27 29 17 18 8 10 27 23 11 13 13 10 8 9 3 11 11 7 12 7 1 9 10 28 16 22 19 18 4 16 5 15 25 38 61 63 61 61
17 19 7 5 2 6 10 9 11 25 19 16 36 20 29 35 23 9 13 21 13 21 19 14 12 12 9 5 4 12 28 35 22 13 19 23 29 11 7 21 47 58 60 64 62
Wind_Direction_500mb
282 287 295 300 304 308 310 310 313 315 318 318 319 320 320 318 315 313 314 292 258 245 247 238 220 244 13 60 53 75 61 184 226 165 253 349 17 77 336 252 336 320 323 323 343
274 277 278 280 285 291 298 302 305 308 311 313 315 316 318 318 316 311 298 286 253 221 192 179 179 120 76 63 50 82 105 222 209 208 220 317 326 329 333 327 312 337 352 314 305
271 272 273 278 282 283 285 290 296 301 304 306 308 310 314 320 324 337 341 114 121 157 158 158 152 20 90 176 171 141 187 217 262 235 279 286 301 305 316 315 354 339 333 4 9
265 268 273 276 277 279 282 285 289 294 298 302 305 307 310 316 318 302 222 222 225 206 195 195 232 23 71 269 195 219 246 222 280 247 273 267 291 297 260 246 329 342 60 64 37
271 270 270 274 277 280 281 283 285 288 292 298 302 304 308 292 265 272 262 261 258 239 229 227 234 195 182 198 181 191 271 252 266 274 271 268 253 265 283 302 134 98 64 39 32
271 272 272 272 276 278 280 282 284 286 289 293 297 298 294 273 269 265 260 257 254 247 237 230 229 223 206 199 177 261 280 286 287 276 263 228 288 170 97 97 101 74 41 25 16
271 271 272 273 272 275 278 280 282 285 286 288 292 292 277 264 270 266 262 255 248 240 237 234 231 200 184 244 261 313 331 321 265 270 215 177 173 231 139 33 83 67 57 42 39
271 273 273 272 273 272 272 274 277 278 281 285 290 288 261 268 261 259 254 249 237 231 231 233 218 214 208 150 22 23 56 356 308 150 176 154 258 69 41 38 92 78 73 66 62
271 268 270 273 271 273 273 273 273 275 278 278 281 270 266 257 260 251 241 239 237 226 214 200 178 172 148 104 11 2 235 206 315 262 139 158 259 69 8 88 94 83 83 81 81
271 272 269 269 274 272 274 277 278 278 270 271 259 273 240 237 236 235 221 213 202 195 177 183 172 98 58 118 220 198 209 230 234 264 69 105 273 43 26 119 102 96 93 89 84
269 272 270 270 270 272 277 283 290 271 237 221 198 223 251 223 221 210 199 184 169 171 170 163 136 212 202 201 172 151 184 201 243 247 118 247 244 12 49 90 101 106 99 93 88
259 262 268 266 265 266 267 256 236 272 295 258 248 248 250 228 199 200 188 177 171 181 121 58 231 226 163 173 199 207 179 230 281 239 178 231 136 59 49 59 108 117 112 108 104
260 261 257 260 259 257 259 253 254 273 264 257 244 239 240 232 229 204 192 193 163 152 191 184 222 154 167 159 185 218 202 217 211 1 291 4 221 182 67 89 107 115 120 117 109
262 257 256 246 253 257 255 259 241 271 290 249 220 225 207 202 228 220 202 193 184 193 167 233 237 179 174 196 191 229 203 164 180 131 235 141 274 182 154 120 101 138 136 128 119
259 254 255 244 247 243 255 253 207 169 279 44 145 168 161 184 149 175 186 196 174 175 145 228 175 191 206 226 153 236 138 167 139 162 76 228 270 240 136 191 181 171 157 146 132
256 252 254 255 246 241 244 219 162 153 227 243 133 158 128 158 139 113 162 153 149 133 276 240 213 168 201 134 170 142 81 55 64 100 257 209 181 221 196 193 168 181 170 156 143
252 251 243 247 240 236 216 170 190 195 239 201 188 176 159 156 170 159 164 171 164 143 219 210 217 200 154 102 73 128 113 57 335 286 227 142 163 246 179 162 171 174 176 165 152
255 247 239 243 251 239 206 211 207 207 211 101 116 111 176 156 204 172 142 191 240 140 128 176 272 173 187 177 173 186 169 167 203 200 224 132 226 248 332 220 172 171 169 167 161
252 249 246 242 243 238 182 213 199 191 200 150 123 154 222 203 164 153 193 211 200 180 185 181 268 171 157 150 146 187 205 166 108 53 46 210 290 153 95 111 152 167 174 176 171
234 229 240 237 236 216 214 227 212 187 176 161 204 182 188 191 164 183 173 201 209 183 192 205 260 213 149 115 37 169 157 123 43 177 244 265 255 225 194 182 174 180 187 182 177
210 213 229 232 227 204 219 220 206 205 190 182 204 190 195 176 186 195 193 221 206 172 183 155 182 18 124 210 178 151 178 77 135 156 187 244 248 232 195 182 181 187 192 186 186
202 214 188 189 197 21 207 161 255 193 189 200 203 178 173 171 180 202 201 241 161 161 162 195 160 182 191 152 316 11 195 170 192 208 206 165 263 341 215 182 182 189 195 192 192
205 189 182 187 217 159 198 222 256 213 200 167 184 220 138 167 164 173 156 132 141 143 152 177 182 79 343 166 66 224 193 137 115 81 199 159 255 31 114 163 186 189 199 196 195
241 202 174 199 212 217 187 201 201 223 262 117 114 106 136 154 136 176 167 139 152 120 107 76 149 187 216 139 69 193 185 178 155 209 207 230 274 214 168 170 181 197 200 199 199
280 279 150 199 205 194 190 187 188 207 201 193 195 219 173 179 166 189 145 113 68 164 124 149 192 177 201 222 9 217 208 190 205 204 216 245 230 218 196 189 190 195 196 198 199
197 263 38 334 8 194 184 199 199 185 166 211 197 197 192 179 193 179 141 166 181 171 171 172 200 160 188 200 205 253 266 219 233 232 258 215 254 262 171 171 171 188 193 198 201
223 200 178 198 33 305 204 187 233 192 202 195 205 203 206 218 209 145 173 189 189 169 178 169 152 150 219 77 116 271 235 217 221 185 203 218 236 152 171 177 191 196 200 204 203
Wind_Speed_850mb
10 10 11 12 12 13 14 14 15 16 17 18 19 21 22 24 26 28 27 15 12 13 11 10 8 3 2 5 6 4 9 1 6 10 5 8 11 2 10 5 11 6 15 18 16
16 15 15 15 14 16 17 18 19 19 20 21 23 24 25 28 30 31 14 9 7 7 8 9 7 4 4 4 3 8 7 12 8 7 4 9 5 17 6 15 5 22 11 15 21
21 20 19 19 19 19 19 20 21 22 22 24 24 25 26 27 29 6 1 2 4 6 11 10 8 2 3 1 3 6 9 7 6 15 8 5 11 4 5 8 11 22 27 10 5
24 23 23 23 22 22 22 23 23 24 24 26 26 26 25 22 7 4 4 4 5 7 11 10 5 1 3 2 4 1 11 10 6 4 5 6 6 11 13 2 20 14 10 10 10
29 28 26 26 27 26 26 26 27 26 26 26 26 26 26 16 18 23 20 17 14 14 17 14 10 5 4 5 3 5 6 9 17 20 21 20 20 13 36 20 7 11 8 15 17
33 32 32 30 30 31 29 29 30 29 28 26 26 25 23 16 19 20 21 21 20 19 21 19 7 10 5 6 8 2 9 22 22 27 20 12 2 7 15 15 13 5 11 14 16
36 36 35 35 33 32 32 31 31 31 31 29 27 26 28 41 28 21 21 22 20 19 20 20 18 12 9 2 4 5 10 12 12 7 9 12 2 9 7 5 15 13 12 12 15
36 37 37 37 36 35 34 33 32 32 32 32 28 25 22 31 33 32 36 29 20 19 18 16 16 14 7 4 8 7 7 7 3 4 0 9 11 17 20 4 18 15 16 16 20
36 34 35 36 36 37 37 34 32 33 32 31 25 20 22 28 26 29 29 26 24 20 18 14 15 8 8 10 8 9 7 9 15 3 5 5 11 13 32 11 24 21 21 23 25
36 37 34 32 34 36 35 33 30 31 31 29 29 15 33 18 14 16 24 21 14 19 14 12 7 5 4 8 11 13 9 8 10 1 5 1 12 17 36 26 31 29 29 32 33
37 39 37 35 32 33 31 27 18 17 26 25 10 14 8 20 19 17 23 26 17 13 9 6 7 18 28 22 5 9 9 10 7 5 1 10 5 14 23 30 30 32 35 40 45
41 40 41 38 36 33 29 16 16 13 21 33 46 51 41 16 13 26 30 25 17 12 12 5 17 22 8 8 7 3 6 10 8 8 10 9 4 7 16 11 18 30 36 42 46
47 48 43 43 42 39 38 31 24 18 13 20 45 51 68 52 30 37 43 26 11 15 17 17 10 15 14 9 10 10 12 11 12 5 3 3 6 8 8 22 25 26 31 37 41
48 50 50 48 47 47 51 24 29 10 8 12 15 16 30 30 16 43 51 23 8 22 15 15 12 11 10 12 20 13 17 12 11 8 9 4 9 6 10 9 11 21 28 34 38
58 53 55 64 57 47 39 21 18 13 11 2 8 10 24 19 21 11 44 20 15 16 14 15 14 12 15 19 15 11 10 13 7 7 3 4 2 4 12 12 16 29 35 37 39
63 55 54 58 70 59 48 34 43 9 24 7 7 9 11 6 6 11 12 7 7 8 5 8 4 14 15 4 16 15 12 11 9 5 5 17 14 8 13 14 21 28 38 39 38
60 61 62 68 66 67 46 47 7 11 6 11 9 11 6 10 6 9 12 13 13 10 13 3 10 6 10 10 4 7 13 1 2 2 11 8 9 13 12 12 35 43 52 44 39
57 57 67 75 74 62 59 12 18 14 15 8 8 7 15 13 8 12 13 11 12 5 6 12 11 21 14 15 15 13 14 10 14 9 4 0 12 9 3 9 45 58 60 50 44
57 69 81 82 83 75 54 20 20 13 13 20 7 8 10 10 14 10 15 11 19 21 17 12 12 2 6 8 16 13 12 6 11 4 5 9 6 1 8 11 37 55 64 58 48
49 57 77 83 79 74 23 39 16 16 10 11 32 22 23 17 18 18 18 10 11 25 10 9 7 5 6 9 3 8 14 5 3 4 9 7 7 10 17 23 25 34 51 58 47
34 26 29 54 65 39 21 18 15 25 22 16 26 17 14 16 20 13 15 2 8 11 15 10 6 1 7 11 15 7 7 3 7 8 10 3 10 3 26 37 42 49 64 66 56
26 7 17 44 23 6 2 7 5 12 18 8 3 9 16 18 18 14 22 4 15 10 19 13 7 9 11 4 1 0 11 12 11 10 4 4 10 6 12 40 53 56 66 67 56
17 19 33 46 12 8 8 9 6 7 15 13 12 7 2 14 10 9 12 4 13 7 12 13 5 4 9 2 1 9 8 7 7 7 13 9 10 9 14 29 43 50 63 64 53
9 9 16 42 17 17 13 11 11 24 7 9 4 5 6 5 4 11 10 6 8 9 17 13 5 9 12 4 2 7 8 8 9 12 11 18 4 5 12 20 33 51 67 60 54
3 7 7 8 14 26 22 17 26 13 19 41 13 16 12 11 15 13 7 7 6 18 11 10 10 9 8 2 4 2 7 10 15 10 19 20 17 14 28 31 58 72 65 61 56
15 9 7 10 7 26 22 27 29 17 18 8 10 27 23 11 13 13 10 8 9 3 11 11 7 12 7 1 9 10 28 16 22 19 18 4 16 5 15 25 38 61 63 61 61
17 19 7 5 2 6 10 9 11 25 19 16 36 20 29 35 23 9 13 21 13 21 19 14 12 12 9 5 4 12 28 35 22 13 19 23 29 11 7 21 47 58 60 64 62
Wind_Direction_850mb
282 287 295 300 304 308 310 310 313 315 318 318 319 320 320 318 315 313 314 292 258 245 247 238 220 244 13 60 53 75 61 184 226 165 253 349 17 77 336 252 336 320 323 323 343
274 277 278 280 285 291 298 302 305 308 311 313 315 316 318 318 316 311 298 286 253 221 192 179 179 120 76 63 50 82 105 222 209 208 220 317 326 329 333 327 312 337 352 314 305
271 272 273 278 282 283 285 290 296 301 304 306 308 310 314 320 324 337 341 114 121 157 158 158 152 20 90 176 171 141 187 217 262 235 279 286 301 305 316 315 354 339 333 4 9
265 268 273 276 277 279 282 285 289 294 298 302 305 307 310 316 318 302 222 222 225 206 195 195 232 23 71 269 195 219 246 222 280 247 273 267 291 297 260 246 329 342 60 64 37
271 270 270 274 277 280 281 283 285 288 292 298 302 304 308 292 265 272 262 261 258 239 229 227 234 195 182 198 181 191 271 252 266 274 271 268 253 265 283 302 134 98 64 39 32
271 272 272 272 276 278 280 282 284 286 289 293 297 298 294 273 269 265 260 257 254 247 237 230 229 223 206 199 177 261 280 286 287 276 263 228 288 170 97 97 101 74 41 25 16
271 271 272 273 272 275 278 280 282 285 286 288 292 292 277 264 270 266 262 255 248 240 237 234 231 200 184 244 261 313 331 321 265 270 215 177 173 231 139 33 83 67 57 42 39
271 273 273 272 273 272 272 274 277 278 281 285 290 288 261 268 261 259 254 249 237 231 231 233 218 214 208 150 22 23 56 356 308 150 176 154 258 69 41 38 92 78 73 66 62
271 268 270 273 271 273 273 273 273 275 278 278 281 270 266 257 260 251 241 239 237 226 214 200 178 172 148 104 11 2 235 206 315 262 139 158 259 69 8 88 94 83 83 81 81
271 272 269 269 274 272 274 277 278 278 270 271 259 273 240 237 236 235 221 213 202 195 177 183 172 98 58 118 220 198 209 230 234 264 69 105 273 43 26 119 102 96 93 89 84
269 272 270 270 270 272 277 283 290 271 237 221 198 223 251 223 221 210 199 184 169 171 170 163 136 212 202 201 172 151 184 201 243 247 118 247 244 12 49 90 101 106 99 93 88
259 262 268 266 265 266 267 256 236 272 295 258 248 248 250 228 199 200 188 177 171 181 121 58 231 226 163 173 199 207 179 230 281 239 178 231 136 59 49 59 108 117 112 108 104
260 261 257 260 259 257 259 253 254 273 264 257 244 239 240 232 229 204 192 193 163 152 191 184 222 154 167 159 185 218 202 217 211 1 291 4 221 182 67 89 107 115 120 117 109
262 257 256 246 253 257 255 259 241 271 290 249 220 225 207 202 228 220 202 193 184 193 167 233 237 179 174 196 191 229 203 164 180 131 235 141 274 182 154 120 101 138 136 128 119
259 254 255 244 247 243 255 253 207 169 279 44 145 168 161 184 149 175 186 196 174 175 145 228 175 191 206 226 153 236 138 167 139 162 76 228 270 240 136 191 181 171 157 146 132
256 252 254 255 246 241 244 219 162 153 227 243 133 158 128 158 139 113 162 153 149 133 276 240 213 168 201 134 170 142 81 55 64 100 257 209 181 221 196 193 168 181 170 156 143
252 251 243 247 240 236 216 170 190 195 239 201 188 176 159 156 170 159 164 171 164 143 219 210 217 200 154 102 73 128 113 57 335 286 227 142 163 246 179 162 171 174 176 165 152
255 247 239 243 251 239 206 211 207 207 211 101 116 111 176 156 204 172 142 191 240 140 128 176 272 173 187 177 173 186 169 167 203 200 224 132 226 248 332 220 172 171 169 167 161
252 249 246 242 243 238 182 213 199 191 200 150 123 154 222 203 164 153 193 211 200 180 185 181 268 171 157 150 146 187 205 166 108 53 46 210 290 153 95 111 152 167 174 176 171
234 229 240 237 236 216 214 227 212 187 176 161 204 182 188 191 164 183 173 201 209 183 192 205 260 213 149 115 37 169 157 123 43 177 244 265 255 225 194 182 174 180 187 182 177
210 213 229 232 227 204 219 220 206 205 190 182 204 190 195 176 186 195 193 221 206 172 183 155 182 18 124 210 178 151 178 77 135 156 187 244 248 232 195 182 181 187 192 186 186
202 214 188 189 197 21 207 161 255 193 189 200 203 178 173 171 180 202 201 241 161 161 162 195 160 182 191 152 316 11 195 170 192 208 206 165 263 341 215 182 182 189 195 192 192
205 189 182 187 217 159 198 222 256 213 200 167 184 220 138 167 164 173 156 132 141 143 152 177 182 79 343 166 66 224 193 137 115 81 199 159 255 31 114 163 186 189 199 196 195
241 202 174 199 212 217 187 201 201 223 262 117 114 106 136 154 136 176 167 139 152 120 107 76 149 187 216 139 69 193 185 178 155 209 207 230 274 214 168 170 181 197 200 199 199
280 279 150 199 205 194 190 187 188 207 201 193 195 219 173 179 166 189 145 113 68 164 124 149 192 177 201 222 9 217 208 190 205 204 216 245 230 218 196 189 190 195 196 198 199
197 263 38 334 8 194 184 199 199 185 166 211 197 197 192 179 193 179 141 166 181 171 171 172 200 160 188 200 205 253 266 219 233 232 258 215 254 262 171 171 171 188 193 198 201
223 200 178 198 33 305 204 187 233 192 202 195 205 203 206 218 209 145 173 189 189 169 178 169 152 150 219 77 116 271 235 217 221 185 203 218 236 152 171 177 191 196 200 204 203